Location: Cutler
(25.6150°N, 80.3110°W)
Time: 18:55:36
(UTC-05:00)

N. Korean satellite - Pass Details

Date: 12 November 2017
Orbit: 460 x 514 km, 97.2° (Epoch: 22 November)

Event Time Altitude Azimuth Distance (km) Brightness Sun altitude
Rises 19:30:08 0° 211° (SSW) 2,469 10.7 -26.3°
Reaches altitude 10° 19:33:38 10° 250° (WSW) 1,601 10.1 -27.1°
Maximum altitude 19:34:31 11° 265° (W) 1,554 10.1 -27.3°
Drops below altitude 10° 19:35:25 10° 280° (W) 1,605 10.1 -27.5°
Sets 19:38:57 0° 319° (NW) 2,491 10.6 -28.3°
